BAW15L EGLL-WSSS

Flight info

Callsign BAW15L
Flight time N/A
Altitude 31000
Route DET L6 DVR L9 KONAN UL607 REMBA DCT MATUG DCT GUBAX DCT KOMIB L984 SULUS Z650 VEMUT DCT DITIS DCT ERGOM DCT DINRO DCT UDROS UM859 KARDE UL851 TOLUN/N0487F330 UL851 TBN UR317 REBLO M11 LUSAL N199 BAKUV N701 LARGI B701 TUGTA A909 BABUM A477 AKRAM R226 MANAT/K0913F330 Z777 INDUD M875 AMDAR/N0496F330 M875 TAPIS L509 LAJAK M881 LAKRA/N0502F340 G325 ZB/N0503F330 G202 RK P628 VIKIT/N0498F350 P628 IBANI L510 IDKUT/N0491F370 L510 GIVAL P628 VPL Y503 RINBA Y507 MAKNA Y511 TOPOR A464 ARAMA DCT TEBUN TEBUN1A
Aircraft B77W/H-SDE1E2E3FGHIJ2J3J4J5M1RWXY/LB1D1

Departure

Time 2026-04-30 12:14
Airport London Heathrow Airport (EGLL)

Arrival

Time N/A
Airport Singapore Changi Airport (WSSS)
Time Latitude Longitude Altitude Speed Heading
2026-04-30 11:29 51.47316 -0.47494 88 ft 0 kts 270°
2026-04-30 11:58 51.47317 -0.47478 89 ft 2 kts 264°
2026-04-30 11:59 51.47319 -0.47455 89 ft 2 kts 252°
2026-04-30 11:59 51.47325 -0.47433 90 ft 2 kts 243°
2026-04-30 11:59 51.47333 -0.47412 90 ft 2 kts 233°
2026-04-30 11:59 51.47342 -0.47394 90 ft 2 kts 223°
2026-04-30 12:00 51.47354 -0.47380 91 ft 2 kts 213°
2026-04-30 12:00 51.47367 -0.47368 91 ft 2 kts 204°
2026-04-30 12:00 51.47381 -0.47360 91 ft 2 kts 194°
2026-04-30 12:00 51.47395 -0.47356 91 ft 2 kts 184°
2026-04-30 12:01 51.47403 -0.47356 91 ft 0 kts 180°
2026-04-30 12:01 51.47376 -0.47357 91 ft 7 kts 181°
2026-04-30 12:01 51.47322 -0.47357 91 ft 7 kts 180°
2026-04-30 12:01 51.47282 -0.47357 91 ft 3 kts 180°
2026-04-30 12:02 51.47272 -0.47358 91 ft 0 kts 180°
2026-04-30 12:05 51.47264 -0.47357 91 ft 2 kts 178°
2026-04-30 12:05 51.47242 -0.47356 91 ft 4 kts 179°
2026-04-30 12:06 51.47211 -0.47355 91 ft 4 kts 180°
2026-04-30 12:06 51.47171 -0.47355 91 ft 7 kts 180°
2026-04-30 12:06 51.47104 -0.47354 90 ft 11 kts 180°
2026-04-30 12:06 51.47026 -0.47353 89 ft 10 kts 180°
2026-04-30 12:07 51.46960 -0.47353 88 ft 8 kts 180°
2026-04-30 12:07 51.46909 -0.47353 88 ft 6 kts 180°
2026-04-30 12:07 51.46856 -0.47352 88 ft 9 kts 180°
2026-04-30 12:07 51.46776 -0.47351 88 ft 11 kts 180°
2026-04-30 12:08 51.46697 -0.47349 86 ft 11 kts 180°
2026-04-30 12:08 51.46658 -0.47416 87 ft 8 kts 255°
2026-04-30 12:08 51.46654 -0.47529 88 ft 9 kts 270°
2026-04-30 12:08 51.46653 -0.47626 88 ft 7 kts 270°
2026-04-30 12:09 51.46653 -0.47703 88 ft 6 kts 270°
2026-04-30 12:09 51.46653 -0.47813 88 ft 13 kts 270°
2026-04-30 12:09 51.46652 -0.47976 88 ft 13 kts 270°
2026-04-30 12:09 51.46652 -0.48120 88 ft 11 kts 270°
2026-04-30 12:10 51.46651 -0.48248 86 ft 11 kts 270°
2026-04-30 12:10 51.46651 -0.48373 85 ft 10 kts 270°
2026-04-30 12:10 51.46651 -0.48480 85 ft 8 kts 270°
2026-04-30 12:10 51.46651 -0.48567 85 ft 6 kts 270°
2026-04-30 12:11 51.46651 -0.48636 85 ft 5 kts 270°
2026-04-30 12:11 51.46650 -0.48694 85 ft 4 kts 259°
2026-04-30 12:11 51.46621 -0.48749 85 ft 4 kts 210°
2026-04-30 12:11 51.46617 -0.48752 85 ft 0 kts 207°
2026-04-30 12:12 51.46572 -0.48780 85 ft 13 kts 195°
2026-04-30 12:12 51.46489 -0.48746 85 ft 11 kts 121°
2026-04-30 12:12 51.46478 -0.48635 85 ft 4 kts 90°
2026-04-30 12:12 51.46478 -0.48633 85 ft 0 kts 90°
2026-04-30 12:13 51.46478 -0.48462 85 ft 46 kts 90°
2026-04-30 12:13 51.46481 -0.47577 89 ft 112 kts 90°
2026-04-30 12:14 51.46488 -0.45984 92 ft 171 kts 90°
2026-04-30 12:14 51.46493 -0.43907 476 ft 193 kts 90°
2026-04-30 12:14 51.46511 -0.41761 1362 ft 194 kts 92°
2026-04-30 12:14 51.46302 -0.39779 2105 ft 183 kts 108°
2026-04-30 12:15 51.45726 -0.37913 2420 ft 194 kts 124°
2026-04-30 12:15 51.44843 -0.36271 2911 ft 197 kts 128°
2026-04-30 12:15 51.44086 -0.34394 3311 ft 205 kts 115°
2026-04-30 12:15 51.43589 -0.32216 3658 ft 218 kts 109°
2026-04-30 12:16 51.43103 -0.29814 3914 ft 235 kts 109°
2026-04-30 12:16 51.42644 -0.27263 4474 ft 240 kts 105°
2026-04-30 12:16 51.42269 -0.24624 4974 ft 248 kts 105°
2026-04-30 12:16 51.41900 -0.21919 5519 ft 254 kts 104°
2026-04-30 12:17 51.41131 -0.16309 5998 ft 257 kts 104°
2026-04-30 12:17 51.40749 -0.13527 6005 ft 257 kts 105°
2026-04-30 12:17 51.40363 -0.10732 6006 ft 257 kts 104°
2026-04-30 12:18 51.39977 -0.07942 6011 ft 257 kts 105°
2026-04-30 12:18 51.39576 -0.05057 6096 ft 275 kts 104°
2026-04-30 12:18 51.39151 -0.01997 6322 ft 294 kts 104°
2026-04-30 12:18 51.38698 0.01260 6830 ft 303 kts 104°
2026-04-30 12:19 51.38244 0.04528 7457 ft 308 kts 104°
2026-04-30 12:19 51.37771 0.07914 8122 ft 312 kts 104°
2026-04-30 12:19 51.37300 0.11280 8761 ft 316 kts 104°
2026-04-30 12:19 51.36816 0.14731 9432 ft 320 kts 104°
2026-04-30 12:20 51.36334 0.18154 10066 ft 323 kts 104°
2026-04-30 12:20 51.35837 0.21681 10737 ft 326 kts 104°
2026-04-30 12:20 51.35291 0.25199 11248 ft 334 kts 105°
2026-04-30 12:20 51.34684 0.28856 11520 ft 348 kts 106°
2026-04-30 12:21 51.34049 0.32656 11984 ft 358 kts 106°
2026-04-30 12:21 51.33404 0.36504 12558 ft 363 kts 106°
2026-04-30 12:21 51.32749 0.40406 13211 ft 366 kts 106°
2026-04-30 12:21 51.32088 0.44331 13889 ft 371 kts 106°
2026-04-30 12:22 51.31418 0.48309 14500 ft 375 kts 106°
2026-04-30 12:22 51.30744 0.52298 15065 ft 378 kts 106°
2026-04-30 12:22 51.30053 0.56381 15672 ft 381 kts 106°
2026-04-30 12:22 51.29360 0.60462 16293 ft 385 kts 106°
2026-04-30 12:23 51.28653 0.64616 16861 ft 389 kts 106°
2026-04-30 12:23 51.27947 0.68754 17406 ft 392 kts 107°
2026-04-30 12:23 51.27228 0.72962 18026 ft 394 kts 107°
2026-04-30 12:23 51.26505 0.77177 18608 ft 397 kts 107°
2026-04-30 12:24 51.25776 0.81426 19099 ft 402 kts 107°
2026-04-30 12:24 51.25040 0.85694 19613 ft 405 kts 107°
2026-04-30 12:24 51.24286 0.90063 20246 ft 406 kts 107°
2026-04-30 12:24 51.23544 0.94356 20797 ft 408 kts 107°
2026-04-30 12:25 51.22787 0.98716 21309 ft 411 kts 107°
2026-04-30 12:25 51.22022 1.03119 21817 ft 414 kts 107°
2026-04-30 12:25 51.21247 1.07561 22346 ft 416 kts 107°
2026-04-30 12:25 51.20473 1.11996 22882 ft 417 kts 107°
2026-04-30 12:26 51.19699 1.16413 23368 ft 419 kts 106°
2026-04-30 12:26 51.18916 1.20870 23752 ft 424 kts 106°
2026-04-30 12:26 51.18117 1.25411 24197 ft 427 kts 106°
2026-04-30 12:26 51.17317 1.29945 24619 ft 430 kts 107°
2026-04-30 12:27 51.16527 1.34552 25053 ft 432 kts 103°
2026-04-30 12:27 51.16071 1.39280 25443 ft 437 kts 96°
2026-04-30 12:27 51.15836 1.44095 25809 ft 441 kts 95°
2026-04-30 12:27 51.15614 1.48960 26251 ft 442 kts 95°
2026-04-30 12:28 51.15388 1.53801 26730 ft 443 kts 95°
2026-04-30 12:28 51.15154 1.58739 27148 ft 445 kts 95°
2026-04-30 12:28 51.14917 1.63630 27504 ft 448 kts 96°
2026-04-30 12:28 51.14674 1.68587 27879 ft 451 kts 96°
2026-04-30 12:29 51.14427 1.73577 28338 ft 452 kts 97°
2026-04-30 12:29 51.14262 1.76888 28643 ft 452 kts 96°
2026-04-30 12:29 51.13924 1.83555 29085 ft 456 kts 96°
2026-04-30 12:29 51.13670 1.88539 29390 ft 460 kts 96°
2026-04-30 12:30 51.13409 1.93592 29851 ft 459 kts 96°
2026-04-30 12:30 51.13147 1.98619 30451 ft 456 kts 96°
2026-04-30 12:30 51.12885 2.03620 31022 ft 452 kts 96°
2026-04-30 12:30 51.12621 2.08603 31235 ft 455 kts 96°
2026-04-30 12:31 51.12084 2.18611 31231 ft 454 kts 96°
2026-04-30 12:31 51.11542 2.28553 31243 ft 455 kts 96°
2026-04-30 12:32 51.10990 2.38525 31234 ft 454 kts 96°
2026-04-30 12:32 51.10426 2.48547 31252 ft 457 kts 96°
2026-04-30 12:33 51.09856 2.58522 31257 ft 454 kts 96°
2026-04-30 12:33 51.08867 2.68420 31274 ft 455 kts 106°
2026-04-30 12:34 51.07141 2.78070 31269 ft 456 kts 107°
2026-04-30 12:34 51.05391 2.87712 31268 ft 456 kts 107°
2026-04-30 12:35 51.03633 2.97340 31267 ft 455 kts 107°
2026-04-30 12:35 51.01872 3.06934 31269 ft 455 kts 107°
2026-04-30 12:36 51.00103 3.16520 31266 ft 455 kts 106°